Regional Weather Roundup
Issued by NWS

Home | Current Version | Previous Version | Text Only | Print | Product List | Glossary On
Versions: 1 2 3 4 5 6 7 8 9 10 11 12 13 14 15 16 17 18 19 20 21 22 23 24 25 26 27 28 29 30 31 32 33 34 35 36 37 38 39 40 41 42 43 44 45 46 47 48 49 50
000
ASUS43 KDTX 232310
RWRMI
MICHIGAN HOURLY REGIONAL WEATHER ROUNDUP
NATIONAL WEATHER SERVICE DETROIT/PONTIAC MI
600 PM EST THU NOV 23 2017

NOTE: "FAIR" INDICATES FEW OR NO CLOUDS BELOW 12,000 FEET WITH NO
SIGNIFICANT WEATHER AND/OR OBSTRUCTION TO VISIBILITY.

MIZ047>049-052>055-059>063-066>070-074>076-081>083-240000-
SOUTHEAST LOWER MICHIGAN

CITY           SKY/WX    TMP DP  RH WIND       PRES   REMARKS
ADRIAN         CLEAR     33  24  69 SW7       29.96R WCI  27
ALMA           CLOUDY    40  28  62 S5        29.92R
ANN ARBOR      CLEAR     32  23  69 S5        29.95R WCI  27
BAD AXE        MOCLDY    34  23  64 SW7       29.92S WCI  28
CARO           CLOUDY    35  23  62 CALM      29.92R
DETROIT CITY   MOCLDY    37  23  56 SW7       29.96R WCI  32
DETROIT        PTCLDY    36  24  62 SW8       29.97R WCI  30
FLINT          CLOUDY    39  20  46 SW5       29.94R
GROSSE ILE     CLEAR     36  27  70 SW7       29.96R WCI  31
HILLSDALE      CLEAR     34  21  60 S5        29.93S WCI  30
HOWELL         MOCLDY    35  23  61 S6        29.93R WCI  30

CITY           SKY/WX    TMP DP  RH WIND       PRES   REMARKS
JACKSON        CLEAR     35  20  54 S5        29.94R WCI  31
LAMBERTVILLE   CLEAR     38  26  60 SW6       29.97R WCI  34
LANSING        MOCLDY    38  22  52 SW9       29.93S WCI  31
LAPEER         CLOUDY    37  24  59 SW5       29.94R WCI  33
MASON          PTCLDY    37  22  54 CALM      29.94R
MONROE         CLEAR     37  25  62 SW5       29.96R WCI  33
MT. CLEMENS    CLOUDY    37  24  58 SW9       29.94R WCI  30
PONTIAC        PTCLDY    35  23  61 SW5       29.92R WCI  31
PORT HOPE        N/A     36  25  64 SW8       29.89S WCI  30
PORT HURON     CLOUDY    36  25  64 SW3       29.95R
TRI CITIES     CLOUDY    40  28  62 SW7       29.92R
MIDLAND        CLOUDY    38  28  66 SW3       29.90S
TROY           CLOUDY    39  23  53 SW8       29.96R WCI  33
SAGINAW HB     CLOUDY    37  27  65 SW7       29.92R WCI  32
$$
MIZ043>046-050>051-056>058-064>065-071>073-077>080-240000-
SOUTHWEST LOWER MICHIGAN

CITY           SKY/WX    TMP DP  RH WIND       PRES   REMARKS
BATTLE CREEK   CLEAR     34  23  64 S6        29.93F WCI  29
BENTON HARBOR  CLEAR     42  23  46 S3        29.93S
BIG RAPIDS     PTCLDY    36  26  68 W5        29.89S WCI  32
COLDWATER      CLEAR     35  20  54 CALM      29.93F
FREMONT        MOCLDY    37  28  72 W3        29.91R
HOLLAND        CLEAR     38  28  67 SW6       29.92S WCI  33
GRAND RAPIDS   MOCLDY    39  29  67 SW8       29.92R WCI  33
IONIA          CLOUDY    40  26  57 W7        29.92R
KALAMAZOO      CLEAR     37  22  54 S6        29.94S WCI  32
LUDINGTON      CLEAR     34  25  71 SW3       29.90R
MARSHALL       CLEAR     35  20  55 CALM      29.93S
MOUNT PLEASANT CLOUDY    41  28  58 W7        29.90R
MUSKEGON       PTCLDY    37  27  67 SW6       29.92S WCI  32
SOUTH HAVEN    CLEAR     41  25  52 SW5       29.93R
$$
MIZ016>042-240000-
NORTHERN LOWER MICHIGAN

CITY           SKY/WX    TMP DP  RH WIND       PRES   REMARKS
ALPENA         CLOUDY    38  27  64 W5        29.88R WCI  34
BEAVER ISLAND  CLOUDY    36  26  66 SW7       29.85R WCI  30
BELLAIRE       CLEAR     36  28  74 CALM      29.88S
CADILLAC       CLEAR     32  24  72 SW5       29.86S WCI  27
CHARLEVOIX     PTCLDY    37  28  70 SW8       29.89S WCI  30
FRANKFORT      CLEAR     38  26  62 SW5       29.88S WCI  34
GAYLORD        CLOUDY    30  24  78 SW6       29.84S WCI  24
GRAYLING       CLOUDY    34  23  64 CALM      29.87S
HARBOR SPRINGS CLOUDY    37  29  71 W8        29.85R WCI  31
HOUGHTON LAKE  CLEAR     36  25  64 W8        29.87R WCI  30
MANISTEE       CLEAR     35  25  66 S5        29.90R WCI  31
OSCODA         CLOUDY    38  24  57 SW6       29.88R WCI  33
PELLSTON       CLOUDY    35  27  72 W3        29.86R
ROGERS CITY    CLOUDY    36  27  70 W3        29.87R
TRAVERSE CITY  PTCLDY    36  24  62 CALM      29.87S
$$
MIZ007>008-015-240000-
EASTERN UPPER MICHIGAN

CITY           SKY/WX    TMP DP  RH WIND       PRES   REMARKS
KINROSS        CLOUDY    31  23  72 W8        29.83R WCI  23
MACKINAC ISLAN CLOUDY    35  22  59 W7        29.84R WCI  29
NEWBERRY       CLOUDY    31  25  78 SW3       29.82S
S. S. MARIE    CLOUDY    33  25  72 SW7       29.80S WCI  27
MUNISING         N/A     32  26  78 CALM      29.82S
$$
MIZ004>006-011>014-085-240000-
CENTRAL UPPER MICHIGAN

CITY           SKY/WX    TMP DP  RH WIND       PRES   REMARKS
MANISTIQUE     PTCLDY    34  20  56 SW3       29.83S
ESCANABA       CLEAR     33  22  63 S5        29.82F WCI  29
MENOMINEE      PTCLDY    36  21  54 SW5       29.85F WCI  32
SAWYER-GWINN   CLEAR     34  21  60 SW5       29.80S WCI  30
$$
MIZ001>003-009>011-084-240000-
WESTERN UPPER MICHIGAN

CITY           SKY/WX    TMP DP  RH WIND       PRES   REMARKS
IRON MOUNTAIN  CLEAR     31  20  63 CALM      29.80R
HOUGHTON       CLOUDY    32  26  78 W7        29.76F WCI  26
COPPER HARBOR    N/A     34  27  75 W3        29.79R
IRONWOOD       CLEAR     31  23  72 S3        29.76F
$$

ABBREVIATIONS USED IN REMARKS
   TC - TEMPERATURE IN CELSIUS
  WCI - WIND CHILL INDEX
   HX - HEAT INDEX
  VSB - VISIBILITY




USA.gov is the U.S. government's official web portal to all federal, state and local government web resources and services.